Find Local Weather

World > North America > United States > Florida

Fort Myers Beach, Florida Regional Weather

Lat: 26.45N, Lon: 81.95W
Wx Zone: FLZ165
Feedback
Expires:201806230500;;966716
ASUS42 KTBW 230417
RWRFL 
FLORIDA REGIONAL WEATHER ROUNDUP
NATIONAL WEATHER SERVICE TAMPA BAY RUSKIN FL
1200 AM EDT SAT JUN 23 2018

NOTE: "FAIR" INDICATES FEW OR NO CLOUDS BELOW 12,000 FEET WITH NO
SIGNIFICANT WEATHER AND/OR OBSTRUCTIONS TO VISIBILITY.


FLZ066-069-070-075>078-162-262-165-265-230500-
SOUTHWEST FLORIDA AND KEYS
  
CITY           SKY/WX    TMP DP  RH WIND       PRES   REMARKS
PUNTA GORDA    FAIR      84  74  71 W5        30.02R                  
FT MYERS       FAIR     N/A N/A N/A W5        30.00S                  
SOUTHWEST INTL FAIR      79  76  90 E3        30.00F                  
NAPLES         FAIR      86  79  79 W3        30.01R HX  99           
MARCO ISLAND   FAIR      83  77  82 CALM      30.02S                  
IMMOKALEE        N/A     79  73  83 E3        30.02S                  
MARATHON       FAIR      83  72  69 CALM      30.03R                  
KEY WEST NAS   FAIR      82  73  74 CALM      30.03R                  
KEY WEST INTL  FAIR      83  76  79 CALM      30.04R                  

STATION/POSITION SKY/WX   TEMP    WIND        PRES    WAVE   SWELL
                          AIR SEA DIR/SP/G            HT/PER HT/PER
                          (F)     (DEG/KT/KT) (MB)    (FT/S) (FT/S)
NAPLES                     85 89              1016.2R
26.0N   85.6W              83 84  170/  4/  8 1016.5
DRY TORTUGAS               84        CALM     1017.2R
SAND KEY                   84                 1017.0R
SOMBRERO KEY               84     340/  3/  4 1016.3R
LONG KEY                   85 90  250/  2/  3 1016.6R
MOLASSES REEF              85 84  330/  1/  2 1017.0

$$

SKY/WX - Weather  TMP - Temperature  DP - Dewpoint  RH - Relative Humidity
WIND - Wind Direction/Speed PRES - Barometric Pressure